Regional Weather Roundup
Issued by NWS Huntsville, AL

Home | Current Version | Previous Version | Text Only | Print | Product List | Glossary On
Versions: 1 2 3 4 5 6 7 8 9 10 11 12 13 14 15 16 17 18 19 20 21 22 23 24 25 26 27 28 29 30 31 32 33 34 35 36 37 38 39 40 41 42 43 44 45 46 47 48 49 50
000
ASUS44 KHUN 302110
RWRHUN

WEATHER ROUNDUP FOR THE TENNESSEE VALLEY
NATIONAL WEATHER SERVICE HUNTSVILLE AL
400 PM CDT SAT JUL 30 2016

ALZ001>004-302200-
NORTHWEST ALABAMA

CITY           SKY/WX    TMP DP  RH WIND       PRES   REMARKS
COURTLAND HCN    N/A     77 N/A N/A S8          N/A
RUSSELLVILLE     N/A     77 N/A N/A MISG        N/A
SHOALS AIRPORT CLOUDY    82  73  74 S6        30.02S
SHOALS TVA RES   N/A     81 N/A N/A MISG        N/A
$$

ALZ005>007-016-302200-
NORTH CENTRAL ALABAMA

CITY           SKY/WX    TMP DP  RH WIND       PRES   REMARKS
CULLMAN AG STN   N/A     72 N/A N/A CALM        N/A
DECATUR AP     CLOUDY    76  71  85 S7        30.02S
HUNTSVILLE AP  CLOUDY    77  69  76 SW6       30.01S
HUN NWS/UAH      N/A     80  67  66 S6          N/A
MERIDIANVILLE  CLOUDY    81  70  69 CALM      30.01S
REDSTONE ARSN  CLOUDY    77  71  82 W7        30.00S
VINEMONT AP    MOCLDY    72  71  96 S3        30.06F
$$

ALZ008>010-302200-
NORTHEAST ALABAMA

CITY           SKY/WX    TMP DP  RH WIND       PRES   REMARKS
ALBERTVILLE    CLOUDY    73  73 100 SW5       30.03F
FORT PAYNE     LGT RAIN  77  72  83 CALM      30.01F
SCOTTSBORO AP  LGT RAIN  77  77 100 SW3       30.02S
SCOTTSBORO HCN   N/A     77 N/A N/A MISG        N/A
VALLEY HEAD      N/A     75 N/A N/A MISG        N/A
$$

TNZ076-096-097-302200-
SOUTHEASTERN MIDDLE TENNESSEE

CITY           SKY/WX    TMP DP  RH WIND       PRES   REMARKS
TULLAHOMA      SUNNY     84  70  61 SW8       30.03R
WINCHESTER     SUNNY     84  72  65 W6        30.01S
$$

...SURROUNDING SITES...

CITY           SKY/WX    TMP DP  RH WIND       PRES   REMARKS
ATLANTA        CLOUDY    79  73  82 W6        30.02F
ANNISTON       CLOUDY    77  73  87 CALM      30.05F
BIRMINGHAM     PTSUNNY   82  73  74 N6        30.05F
CHATTANOOGA    CLOUDY    89  68  49 W12G17    29.98S HX  93
DALTON         CLOUDY    88  70  55 S3        29.99S HX  92
GADSDEN        CLOUDY    81  71  71 W6        30.02F
GOLDEN TRNGL   NOT AVBL
HALEYVILLE     FAIR      75  72  90 SE6       30.04F
JACKSON TN     MOSUNNY   85  73  67 W5        29.98F HX  91
MEMPHIS        MOSUNNY   91  73  55 VRB3      29.97F HX  99
NASHVILLE      PTSUNNY   87  69  54 S6        29.98F HX  91
OXFORD MS      FAIR      88  70  55 W7        30.00S HX  92
ROME           CLOUDY    88  70  55 W9        30.00R HX  93
SAVANNAH       MOSUNNY   88  73  62 NW5       29.98S HX  96
TUPELO         CLOUDY    91  70  49 SW6       29.96F HX  96
TUSCALOOSA     CLOUDY    80  73  79 E8        30.02R THUNDER
$$

...GULF COAST WEATHER...

CITY           SKY/WX    TMP DP  RH WIND       PRES   REMARKS
GULFPORT       CLOUDY    90  75  61 S10       29.99F HX 100
PASCAGOULA     MOSUNNY   89  79  72 S10       29.99F HX 104
MOBILE         MOSUNNY   92  71  50 SW7       30.00F HX  98
GULF SHORES    CLEAR     88  77  69 SW10G20   30.01S HX 100
PENSACOLA      MOSUNNY   91  76  61 S13       30.00F HX 103
DESTIN         PTSUNNY   91  79  67 VRB5      30.00F HX 107
PANAMA CITY    SUNNY     89  78  71 S10       30.00F HX 103
APPALACHICOLA  CLOUDY    87  79  76 SW9       30.02S HX 101
$$




USA.gov is the U.S. government's official web portal to all federal, state and local government web resources and services.